Tümü
Avenger Fld Airport (Sweetwater, TX) SWW Hava Durumu
|
Sweetwater, TX (KSWW)
Açık
Hafif rüzgârlı |
|
26 °C |
There is no TAF data available at SWW or any nearby airports.
Yakın zamandaki SWW METAR geçmişi
| Date | Time (CDT) | Flight Rules | Wind Dir. | Speed | Type | Height AGL (ft) | Visibility | Temp (°C) | Temp (°F) | Dew Point (°C) | Dew Point (°F) | Rel. Humid. | Pressure | Density Altitude | Remarks |
|---|---|---|---|---|---|---|---|---|---|---|---|---|---|---|---|
| 01-Eyl | 07:55 | VFR | 200° | 9 kt | 10 miles | 26° | 78° | 16° | 60° | 56% | 30.10 in Hg | 3.994 ft | |||
| 01-Eyl | 07:35 | VFR | 190° | 10 kt | 10 miles | 26° | 78° | 16° | 60° | 56% | 30.10 in Hg | 3.994 ft | |||
| 01-Eyl | 07:15 | VFR | 190° | 11 kt | 10 miles | 26° | 78° | 16° | 60° | 56% | 30.09 in Hg | 4.004 ft | |||
| 01-Eyl | 06:55 | VFR | 190° | 11 kt | 10 miles | 26° | 78° | 16° | 60° | 56% | 30.09 in Hg | 4.004 ft | |||
| 01-Eyl | 06:35 | VFR | 190° | 10 kt | 10 miles | 26° | 78° | 16° | 60° | 56% | 30.09 in Hg | 4.004 ft | |||
| 01-Eyl | 06:15 | VFR | 190° | 11 kt | 10 miles | 26° | 78° | 16° | 60° | 54% | 30.09 in Hg | 4.004 ft | |||
| 01-Eyl | 05:55 | VFR | 180° | 13 kt | 10 miles | 26° | 78° | 16° | 60° | 53% | 30.09 in Hg | 4.004 ft | |||
| 01-Eyl | 05:35 | VFR | 180° | 13 kt | 10 miles | 27° | 80° | 16° | 60° | 52% | 30.08 in Hg | 4.134 ft | Wind gusting to 17 KT | ||
| 01-Eyl | 05:15 | VFR | 180° | 9 kt | 10 miles | 27° | 80° | 16° | 60° | 51% | 30.08 in Hg | 4.134 ft | |||
| 01-Eyl | 04:55 | VFR | 170° | 10 kt | 10 miles | 27° | 80° | 15° | 59° | 50% | 30.08 in Hg | 4.134 ft | Wind gusting to 14 KT | ||
| 01-Eyl | 04:35 | VFR | 160° | 9 kt | 10 miles | 27° | 80° | 15° | 59° | 49% | 30.08 in Hg | 4.134 ft | |||
| 01-Eyl | 04:15 | VFR | 160° | 9 kt | 10 miles | 27° | 80° | 15° | 59° | 48% | 30.08 in Hg | 4.134 ft | |||
| 01-Eyl | 03:55 | VFR | 150° | 8 kt | 10 miles | 27° | 80° | 15° | 59° | 47% | 30.08 in Hg | 4.134 ft | |||
| 01-Eyl | 03:35 | VFR | 160° | 9 kt | 10 miles | 27° | 80° | 15° | 59° | 47% | 30.07 in Hg | 4.144 ft | |||
| 01-Eyl | 03:15 | VFR | 160° | 9 kt | 10 miles | 27° | 80° | 15° | 59° | 46% | 30.07 in Hg | 4.144 ft | |||
| 01-Eyl | 02:55 | VFR | 160° | 8 kt | 10 miles | 27° | 80° | 14° | 57° | 45% | 30.07 in Hg | 4.144 ft | |||
| 01-Eyl | 02:35 | VFR | 160° | 9 kt | 10 miles | 28° | 82° | 14° | 57° | 44% | 30.08 in Hg | 4.254 ft | |||
| 01-Eyl | 02:15 | VFR | 160° | 8 kt | 10 miles | 28° | 82° | 14° | 57° | 43% | 30.08 in Hg | 4.254 ft | |||
| 01-Eyl | 01:55 | VFR | 150° | 8 kt | 10 miles | 28° | 82° | 14° | 57° | 42% | 30.08 in Hg | 4.254 ft | |||
| 01-Eyl | 01:15 | VFR | 150° | 7 kt | 10 miles | 29° | 84° | 14° | 57° | 41% | 30.07 in Hg | 4.384 ft | |||
| 01-Eyl | 00:55 | VFR | 160° | 8 kt | 10 miles | 29° | 84° | 14° | 57° | 39% | 30.07 in Hg | 4.384 ft | |||
| 01-Eyl | 00:35 | VFR | 160° | 11 kt | 10 miles | 29° | 84° | 14° | 57° | 39% | 30.07 in Hg | 4.384 ft | |||
| 01-Eyl | 00:15 | VFR | 150° | 8 kt | 10 miles | 29° | 84° | 14° | 57° | 39% | 30.06 in Hg | 4.394 ft | Wind gusting to 15 KT | ||
| 31-Ağu | 23:55 | VFR | 150° | 10 kt | 10 miles | 30° | 86° | 14° | 57° | 38% | 30.06 in Hg | 4.514 ft |
Giriş
| Tarayıcınız desteklenmiyor. tarayıcınızı yükseltin |
